Tinker AFB, OK

10:34 AM CDT on April 24, 2018 (GMT -0500)
Tinker Air Force Base

Weather History for KTIK - March, 2013

Change the Weather History Date:

Wednesday, March 20, 2013

  Actual Average Record
Temperature  
Mean Temperature 44 °F -  
Max Temperature 57 °F 60 °F 90 °F (2017)
Min Temperature 31 °F 40 °F 28 °F (2016)
Degree Days  
Heating Degree Days 22    
Moisture  
Dew Point 29 °F    
Average Humidity 54    
Maximum Humidity 85    
Minimum Humidity 31    
Precipitation  
Precipitation 0.00 in - - ()
Sea Level Pressure  
Sea Level Pressure 30.24 in    
Wind  
Wind Speed 7 mph (NNE)    
Max Wind Speed 14 mph    
Max Gust Speed -    
Visibility 10 miles    
Events      
Averages and records for this station are not official NWS values.
T = Trace of Precipitation, MM = Missing Value Source: NWS Daily Summary

Daily Weather History Graph

Daily Weather History Graph

Search for Another Location

Airport or City:

Astronomy

Mar. 20, 2013 Rise Set
Actual Time 7:32 AM CDT 7:41 PM CDT
Civil Twilight 7:07 AM CDT 8:06 PM CDT
Nautical Twilight 6:37 AM CDT 8:36 PM CDT
Astronomical Twilight 6:07 AM CDT 9:06 PM CDT
Moon 1:29 PM CDT (3/20) 3:02 AM CDT (3/20)
Length of Visible Light 12h 59m
Length of Day
12h 08m
First Quarter, 59% of the Moon is Illuminated
Mar 20
First Quarter
Mar 27
Full
Apr 2
Last Quarter
Apr 10
New
Apr 18
First Quarter

Hourly Weather History & Observations

Time (CDT) Temp. Windchill Dew Point Humidity Pressure Visibility Wind Dir Wind Speed Gust Speed Precip Events Conditions
12:58 AM 43.2 °F 37.4 °F 26.8 °F 52% 30.24 in 10.0 mi NE 10.4 mph - N/A   Clear
1:58 AM 40.5 °F 35.1 °F 26.8 °F 58% 30.25 in 10.0 mi NE 8.1 mph - N/A   Clear
2:58 AM 38.8 °F 33.8 °F 27.0 °F 62% 30.26 in 10.0 mi NNE 6.9 mph - N/A   Clear
3:58 AM 38.1 °F 33.7 °F 27.0 °F 64% 30.27 in 10.0 mi North 5.8 mph - N/A   Clear
4:58 AM 37.0 °F 32.4 °F 27.0 °F 67% 30.27 in 10.0 mi NNW 5.8 mph - N/A   Clear
5:58 AM 34.9 °F 29.0 °F 27.7 °F 75% 30.29 in 10.0 mi NNW 6.9 mph - N/A   Clear
6:58 AM 33.6 °F 28.4 °F 27.9 °F 79% 30.31 in 10.0 mi NW 5.8 mph - N/A   Clear
7:58 AM 31.8 °F 24.6 °F 27.7 °F 85% 30.35 in 10.0 mi NNW 8.1 mph - N/A   Clear
8:58 AM 37.0 °F 28.5 °F 29.7 °F 75% 30.38 in 10.0 mi NNW 13.8 mph - N/A   Clear
9:58 AM 42.6 °F 36.8 °F 31.3 °F 64% 30.38 in 10.0 mi NNW 10.4 mph - N/A   Clear
10:58 AM 47.3 °F - 31.8 °F 55% 30.38 in 10.0 mi NNE 10.4 mph - N/A   Clear
11:58 AM 50.0 °F - 31.8 °F 50% 30.37 in 10.0 mi NE 8.1 mph - N/A   Clear
12:58 PM 52.0 °F - 30.9 °F 45% 30.34 in 10.0 mi Variable 6.9 mph - N/A   Clear
1:58 PM 53.2 °F - 30.2 °F 41% 30.31 in 10.0 mi NNW 6.9 mph - N/A   Clear
2:58 PM 55.6 °F - 30.7 °F 39% 30.25 in 8.0 mi Variable 3.5 mph - N/A   Clear
3:58 PM 56.5 °F - 29.3 °F 35% 30.21 in 10.0 mi NW 4.6 mph - N/A   Clear
4:58 PM 55.9 °F - 25.9 °F 31% 30.18 in 10.0 mi Variable 1.2 mph - N/A   Clear
5:58 PM 55.9 °F - 26.4 °F 32% 30.15 in 10.0 mi North 2.3 mph - N/A   Clear
6:58 PM 55.0 °F - 27.3 °F 34% 30.14 in 10.0 mi ENE 3.5 mph - N/A   Clear
7:58 PM 50.4 °F - 29.3 °F 44% 30.11 in 10.0 mi ENE 5.8 mph - N/A   Clear
8:58 PM 46.9 °F - 29.8 °F 51% 30.10 in 10.0 mi East 4.6 mph - N/A   Clear
9:58 PM 46.2 °F 43.3 °F 28.2 °F 50% 30.08 in 10.0 mi East 5.8 mph - N/A   Clear
10:58 PM 45.9 °F 42.3 °F 27.9 °F 49% 30.05 in 10.0 mi ESE 6.9 mph - N/A   Clear
11:58 PM 44.4 °F 39.5 °F 27.1 °F 51% 30.03 in 10.0 mi ESE 9.2 mph - N/A   Clear